THORAD AGENA D DEB, 4719

Orbit data source: Space-Track

THORAD AGENA D DEB, 4719 is space debris in SSO originally from a launch on Wed, 08 Apr 1970 UTC launched from the Air Force Western Test Range (AFWTR). Debris objects in space refer to the collection of defunct objects orbiting the Earth. Examples of debris include non-operational satellites, rocket bodies, and fragments generated from explosions, collisions, or faulty payload assembly.

Loading next visibility...
Identifier
4719, 1970-025CD
Orbit
SSO
Country
Flag of USUS
Related business
Manufacturer
Unknown
Mission
Spacecraft
Bus & Motor
Unknown
Mass
Unknown
Launch date (UTC)
1970-04-08 (56 years ago)
Launch vehicle
Unknown
Launch site
Air Force Western Test Range (AFWTR)
Object type
Payload
Rocket body
Debris
Shape & HBR
Unknown shape, 0.3 m
Radar Cross Section
Medium (>0.1 m² and <1 m²)

Expand to show TLE details & history
Last TLE update: 6 hours ago

TLE from 6 hours ago
0 THORAD AGENA D DEB
1  4719U 70025CD  26132.85736736  .00000636  00000-0  46793-3 0  9991
2  4719  99.9473 186.4958 0120080 302.2514  56.7054 13.96581628837669
Epoch: 2026-05-12T20:34Z
TLE epoch observation values (Epoch: 2026-05-12T20:34:36.539Z)
Latitude
-0.00003°
Longitude
7.21783°
Altitude
861.217 km
Speed
7.446 km/s
True Right ascension
12h 25m 58s
True Declination
0° 00' 00"
Sunlit
Object was in full shadow at epoch
Visualization orbit readout
Latitude
Unknown
Longitude
Unknown
Altitude
Unknown
Speed
Unknown
Apparent Right ascension
Unknown
Apparent Declination
Unknown
Sunlit
N/A
Visualization observer readout
Local Sidereal Time
11:03:52
Azimuth
Unknown
Elevation
Unknown
Doppler factor
Unknown
Orbital elements
Apogee altitude
990.339 km
Perigee altitude
815.478 km
Semi-major axis
7,281.046 km
Eccentricity
0.01201
Inclination
99.9473°
RAAN
186.4958°
Arg. of periapsis
302.2514°
True anomaly
57.86503°
Mean anomaly
56.7054°
Eccentric anomaly
57.28426°
Mean motion
3.49343 °/min
Orbital period
103.05 mins
BSTAR
0.00046793

Documentation

Showing up to 5 results
|